TimeEST,TemperatureF,Dew PointF,Humidity,Sea Level PressureIn,VisibilityMPH,Wind Direction,Wind SpeedMPH,Gust SpeedMPH,PrecipitationIn,Events,Conditions,WindDirDegrees,DateUTC
12:53 AM,73.0,64.0,73,30.03,10.0,NE,8.1,-,N/A,,Scattered Clouds,50,2011-11-08 05:53:00
1:53 AM,73.9,64.0,71,30.02,10.0,ENE,8.1,-,N/A,,Mostly Cloudy,60,2011-11-08 06:53:00
2:53 AM,73.9,64.0,71,30.00,10.0,NNE,8.1,-,N/A,,Mostly Cloudy,30,2011-11-08 07:53:00
3:53 AM,73.9,63.0,68,30.01,10.0,NNE,5.8,-,N/A,,Mostly Cloudy,30,2011-11-08 08:53:00
4:53 AM,75.0,63.0,66,30.01,10.0,NNE,11.5,-,0.00,Rain,Light Rain,20,2011-11-08 09:53:00
5:53 AM,73.9,64.0,71,30.01,10.0,NE,13.8,-,0.00,,Mostly Cloudy,40,2011-11-08 10:53:00
6:53 AM,73.9,64.0,71,30.02,10.0,NE,8.1,-,0.00,Rain,Light Rain,50,2011-11-08 11:53:00
7:53 AM,75.0,64.9,71,30.03,10.0,ENE,8.1,-,N/A,,Mostly Cloudy,70,2011-11-08 12:53:00
8:53 AM,78.1,61.0,56,30.04,10.0,NE,11.5,-,N/A,,Scattered Clouds,50,2011-11-08 13:53:00
9:53 AM,79.0,62.1,56,30.04,10.0,NE,12.7,-,N/A,,Mostly Cloudy,50,2011-11-08 14:53:00
10:53 AM,75.0,69.1,82,30.04,10.0,NE,11.5,19.6,0.00,,Mostly Cloudy,40,2011-11-08 15:53:00
11:53 AM,78.1,64.9,64,30.02,10.0,NNE,15.0,-,N/A,,Mostly Cloudy,30,2011-11-08 16:53:00
12:53 PM,78.1,66.0,66,30.00,10.0,NNE,12.7,-,0.00,,Mostly Cloudy,20,2011-11-08 17:53:00
1:53 PM,80.1,64.0,58,29.99,10.0,NNE,15.0,-,N/A,,Mostly Cloudy,30,2011-11-08 18:53:00
2:53 PM,78.1,63.0,60,29.99,10.0,NNE,13.8,24.2,N/A,,Mostly Cloudy,30,2011-11-08 19:53:00
3:53 PM,79.0,61.0,54,29.98,10.0,North,16.1,-,N/A,,Scattered Clouds,10,2011-11-08 20:53:00
4:53 PM,78.1,60.1,54,29.98,10.0,NNE,9.2,-,N/A,,Scattered Clouds,20,2011-11-08 21:53:00
5:53 PM,75.0,62.1,64,29.99,10.0,North,8.1,-,N/A,,Scattered Clouds,10,2011-11-08 22:53:00
6:53 PM,73.9,62.1,66,30.00,10.0,North,6.9,-,N/A,,Mostly Cloudy,360,2011-11-08 23:53:00
7:53 PM,70.0,62.1,76,30.01,10.0,NNW,5.8,-,N/A,,Scattered Clouds,340,2011-11-09 00:53:00
8:53 PM,66.0,61.0,84,30.01,10.0,NNW,5.8,-,N/A,,Partly Cloudy,330,2011-11-09 01:53:00
9:53 PM,68.0,62.1,81,30.01,10.0,NNW,4.6,-,N/A,,Scattered Clouds,330,2011-11-09 02:53:00
10:53 PM,72.0,64.9,78,30.00,10.0,NE,13.8,24.2,0.00,Rain,Light Rain,50,2011-11-09 03:53:00
11:53 PM,73.0,66.0,79,29.97,10.0,NE,5.8,-,0.00,,Mostly Cloudy,40,2011-11-09 04:53:00